Santa Rosa, CA

7:45 AM PST on December 09, 2019 (GMT -0800)
Sonoma County

Weather History for KSTS - October, 2019

Change the Weather History Date:

Monday, October 14, 2019

  Actual Average Record
Temperature  
Mean Temperature 58 °F 61 °F  
Max Temperature 75 °F 77 °F 96 °F (2010)
Min Temperature 42 °F 45 °F 38 °F (2013)
Degree Days  
Heating Degree Days 6    
Month to date heating degree days  
Since 1 July heating degree days  
Cooling Degree Days 0    
Month to date cooling degree days  
Year to date cooling degree days  
Growing Degree Days 8 (Base 50)    
Moisture  
Dew Point 44 °F    
Average Humidity 84    
Maximum Humidity 100    
Minimum Humidity 32    
Precipitation  
Precipitation 0.00 in 0.06 in 0.54 in (2016)
Month to date precipitation 0.52  
Year to date precipitation 23.05  
Sea Level Pressure  
Sea Level Pressure 29.96 in    
Wind  
Wind Speed 2 mph (South)    
Max Wind Speed 12 mph    
Max Gust Speed -    
Visibility 5 miles    
Events Fog    
T = Trace of Precipitation, MM = Missing Value Source: NWS Daily Summary

Daily Weather History Graph

Daily Weather History Graph

Search for Another Location

Airport or City:

Astronomy

Oct. 14, 2019 Rise Set
Actual Time 7:19 AM PDT 6:34 PM PDT
Civil Twilight 6:52 AM PDT 7:01 PM PDT
Nautical Twilight 6:21 AM PDT 7:32 PM PDT
Astronomical Twilight 5:51 AM PDT 8:02 PM PDT
Moon 7:27 PM PDT (10/14) 7:56 AM PDT (10/14)
Length of Visible Light 12h 08m
Length of Day
11h 15m
Full, 99% of the Moon is Illuminated
Oct 14
Full
Oct 21
Last Quarter
Oct 27
New
Nov 4
First Quarter
Nov 12
Full

Hourly Weather History & Observations

Time (PDT) Temp. Windchill Dew Point Humidity Pressure Visibility Wind Dir Wind Speed Gust Speed Precip Events Conditions
12:00 AM 44.1 °F 42.5 °F 43.0 °F 96% 29.90 in 0.8 mi WSW 3.5 mph - N/A   Mist
12:10 AM 45.0 °F - 45.0 °F 100% 29.90 in 0.2 mi Calm Calm - N/A Fog Fog
12:53 AM 46.9 °F - 46.9 °F 100% 29.88 in 0.2 mi Calm Calm - N/A Fog Fog
1:53 AM 46.0 °F - 46.0 °F 100% 29.89 in 0.2 mi Calm Calm - N/A Fog Fog
2:53 AM 46.0 °F - 46.0 °F 100% 29.89 in 0.2 mi Calm Calm - N/A Fog Fog
3:53 AM 45.0 °F - 45.0 °F 100% 29.89 in 0.2 mi Calm Calm - N/A Fog Fog
4:53 AM 44.1 °F - 44.1 °F 100% 29.90 in 0.2 mi Calm Calm - N/A Fog Fog
5:53 AM 44.1 °F - 44.1 °F 100% 29.91 in 0.2 mi Calm Calm - N/A Fog Fog
6:53 AM 43.0 °F - 43.0 °F 100% 29.94 in 0.2 mi Calm Calm - N/A Fog Fog
7:53 AM 42.1 °F 40.2 °F 42.1 °F 100% 29.95 in 0.2 mi North 3.5 mph - N/A Fog Fog
8:53 AM 42.1 °F - 42.1 °F 100% 29.96 in 0.2 mi Calm Calm - N/A Fog Fog
9:31 AM 43.0 °F - 43.0 °F 100% 29.99 in 1.0 mi Calm Calm - N/A   Overcast
9:48 AM 44.6 °F - 44.6 °F 100% 29.99 in 7.0 mi Calm Calm - N/A   Scattered Clouds
9:53 AM 45.0 °F - 45.0 °F 100% 29.98 in 7.0 mi Calm Calm - N/A   Scattered Clouds
10:53 AM 55.9 °F - 43.0 °F 62% 29.98 in 10.0 mi Calm Calm - N/A   Clear
11:53 AM 62.1 °F - 44.1 °F 52% 29.97 in 10.0 mi South 4.6 mph - N/A   Partly Cloudy
12:53 PM 66.9 °F - 44.1 °F 44% 29.96 in 10.0 mi South 6.9 mph - N/A   Partly Cloudy
1:53 PM 71.1 °F - 41.0 °F 34% 29.94 in 10.0 mi South 6.9 mph - N/A   Clear
2:53 PM 75.0 °F - 43.0 °F 32% 29.93 in 10.0 mi SSW 8.1 mph - N/A   Clear
3:53 PM 73.0 °F - 45.0 °F 37% 29.93 in 10.0 mi South 10.4 mph - N/A   Clear
4:53 PM 69.1 °F - 48.0 °F 47% 29.94 in 10.0 mi SSE 11.5 mph - N/A   Clear
5:53 PM 62.1 °F - 46.0 °F 56% 29.94 in 10.0 mi South 10.4 mph - N/A   Clear
6:53 PM 55.9 °F - 46.9 °F 72% 29.95 in 10.0 mi SSE 8.1 mph - N/A   Clear
7:53 PM 50.0 °F - 46.0 °F 86% 29.98 in 10.0 mi SE 8.1 mph - 0.00 in   Clear
8:53 PM 46.9 °F - 45.0 °F 93% 30.00 in 9.0 mi South 4.6 mph - N/A   Clear
9:53 PM 46.9 °F - 45.0 °F 93% 30.02 in 9.0 mi South 3.5 mph - N/A   Clear
10:53 PM 45.0 °F - 44.1 °F 97% 30.02 in 8.0 mi Calm Calm - N/A   Clear
11:25 PM 43.0 °F - 42.1 °F 97% 30.04 in 7.0 mi Calm Calm - N/A   Scattered Clouds
11:34 PM 43.0 °F - 42.1 °F 97% 30.04 in 4.0 mi Calm Calm - N/A   Mostly Cloudy
11:40 PM 43.0 °F - 42.1 °F 97% 30.04 in 1.5 mi Calm Calm - N/A   Mostly Cloudy
11:51 PM 42.8 °F - 42.8 °F 100% 30.04 in 0.5 mi Calm Calm - N/A Fog Fog
11:53 PM 42.1 °F - 42.1 °F 100% 30.02 in 0.5 mi Calm Calm - N/A Fog Fog